Tracking 27422 objects as of 31-May-2023
HD Live streaming from Space Station
objects crossing your sky now

STARLINK-4695

Track STARLINK-4695 now!
10-day predictions
STARLINK-4695 is classified as:


NORAD ID: 53718
Int'l Code: 2022-107U
Perigee: 546.1 km
Apogee: 547.7 km
Inclination: 53.2 °
Period: 95.4 minutes
Semi major axis: 6917 km
RCS: Unknown
Launch date: September 5, 2022
Source: United States (US)
Launch site: AIR FORCE EASTERN TEST RANGE (AFETR)
Your satellite tracking list
Your tracking list is empty




NASA's NSSDC Master Catalog

Two Line Element Set (TLE):
1 53718U 22107U   23150.32200497  .00000281  00000-0  35770-4 0  9991
2 53718  53.2158 127.4303 0001174  91.6421 268.4706 15.08839391 41270
Source of the keplerian elements: AFSPC